[[{"header":{"parameterUnit":"m.s-1","parameterCategory":1,"la1":30.2992,"la2":30.254,"lo1":-89.0895,"lo2":-89.0443,"dy":0.0025,"dx":0.0025,"nx":19,"ny":19,"refTime":"2026-05-02T09:00:00:Z","depth":0,"parameterNumber":2,"parameterNumberName":"U-component_of_WINDS"},"data":[0,0,0,-4.6912,-4.6917,-4.7151,-4.7152,-4.7476,-4.7479,0,0,0,0,0,0,0,0,0,0,0,-4.6857,-4.686,-4.6911,-4.6918,-4.7151,-4.7152,-4.7475,-4.7479,0,0,0,0,0,0,0,0,0,0,0,-4.6856,-4.6859,-4.6862,-4.6919,-4.7151,-4.7152,-4.7475,-4.729,0,0,0,0,0,0,0,0,0,0,-4.7058,-4.7021,-4.6858,-4.6862,-4.692,-4.7151,-4.7152,-4.728,-4.7301,-4.738,0,-4.7454,0,-4.7472,-4.7502,-4.7503,0,0,0,-4.6907,-4.7004,-4.7054,-4.6863,-4.6922,-4.7151,-4.7043,-4.7292,-4.7315,-4.7408,-4.7458,-4.747,-4.7477,-4.7504,-4.7506,-4.7996,-4.7999,0,0,-4.6894,-4.6907,-4.7038,-4.707,-4.7035,-4.7036,-4.705,-4.7306,-4.7361,-4.7459,-4.7477,-4.7482,-4.7507,-4.7509,-4.7994,-4.7997,0,0,0,-4.6864,-4.6899,-4.6942,-4.7058,-4.7098,-4.7043,-4.706,-4.735,-4.7363,-4.748,-4.7486,-4.7509,-4.7513,-4.7991,-4.7995,-4.8145,0,0,0,-4.6856,-4.6881,-4.6937,-4.6947,-4.7093,-4.7227,-4.7099,-4.7345,-4.7374,-4.7485,-4.7509,-4.7516,-4.7987,-4.7993,-4.8135,-4.8216,0,0,0,-4.6837,-4.6878,-4.6917,-4.6947,-4.7048,-4.7222,-4.725,-4.7351,-4.7378,-4.7504,-4.7517,-4.7985,-4.7992,-4.8125,-4.82,-4.8349,0,0,0,-4.682,-4.7048,-4.692,-4.7176,-4.7046,-4.7313,-4.7248,-4.7446,-4.7571,-4.7511,-4.7988,-4.7994,-4.8122,-4.819,-4.8339,-4.8479,-4.8538,0,0,-4.7114,-4.7084,-4.7233,-4.7125,-4.7419,-4.7276,-4.7592,-4.7695,-4.7695,-4.7896,-4.7908,-4.8138,-4.8199,-4.8347,-4.886,-4.8906,0,0,0,-4.7331,-4.7439,-4.7514,-4.7633,-4.7717,-4.7796,-4.7848,-4.7887,-4.8056,-4.7801,-4.8231,-4.8267,-4.8353,-4.842,-4.846,-4.8534,-4.8025,-4.8024,-4.8024,-4.7767,-4.7755,-4.8002,-4.8018,-4.8134,-4.8186,-4.828,-4.8341,-4.8294,-4.8396,-4.8457,-4.8769,-4.8847,-4.8877,-4.8955,-4.8527,-4.8528,-4.8528,-4.8529,-4.8199,-4.8351,-4.8282,-4.8497,-4.8483,-4.8664,-4.8723,-4.8684,-4.8851,-4.8722,-4.8798,-4.8661,-4.8929,-4.8996,-4.854,-4.8538,-4.8537,-4.8536,-4.8535,-4.8485,-4.8556,-4.8597,-4.8769,-4.8902,-4.891,-4.9073,-4.9054,-4.9036,-4.9111,-4.9174,-4.9171,-4.9168,-4.9142,-4.9143,-4.9144,-4.9145,-4.9146,-4.9146,-4.8767,-4.8809,-4.8949,-4.9056,-4.913,-4.9225,-4.9279,-4.9352,-4.9427,-4.94,-4.9401,-4.9346,-4.8956,-4.886,-4.9163,-4.916,-4.9158,-4.9156,-4.9155,-4.9214,-4.9109,-4.9326,-4.94,-4.9524,-4.9659,-4.963,-4.978,-4.9837,-4.9919,-4.9846,-4.9561,-4.9529,-4.9497,-4.9418,-4.9847,-4.9847,-4.9847,-4.9847,-4.9458,-4.9438,-4.9655,-4.9775,-4.9891,-4.9887,-5.0133,-5.0176,-5.0205,-5.024,-5.0174,-5.0066,-5.0034,-5.0021,-4.9978,-4.9904,-5.0447,-5.0448,-5.0448,-4.9732,-4.9723,-4.9937,-4.9962,-5.0057,-5.014,-5.0371,-5.0512,-5.0523,-5.0472,-5.0267,-5.0242,-5.0067,-5.0011,-4.9958,-4.9892,-4.9755,0,0]},{"header":{"parameterUnit":"m.s-1","parameterCategory":1,"la1":30.2992,"la2":30.254,"lo1":-89.0895,"lo2":-89.0443,"dy":0.0025,"dx":0.0025,"nx":19,"ny":19,"refTime":"2026-05-02T09:00:00:Z","depth":0,"parameterNumber":3,"parameterNumberName":"V-component_of_WINDS"},"data":[0,0,0,-6.2402,-6.2404,-6.2472,-6.2472,-6.2589,-6.259,0,0,0,0,0,0,0,0,0,0,0,-6.2403,-6.2404,-6.2402,-6.2405,-6.2472,-6.2472,-6.2589,-6.259,0,0,0,0,0,0,0,0,0,0,0,-6.2402,-6.2404,-6.2406,-6.2405,-6.2472,-6.2472,-6.2588,-6.2526,0,0,0,0,0,0,0,0,0,0,-6.2455,-6.2476,-6.2403,-6.2406,-6.2405,-6.2472,-6.2472,-6.2523,-6.253,-6.2572,0,-6.2616,0,-6.2605,-6.26,-6.2601,0,0,0,-6.2389,-6.247,-6.247,-6.2406,-6.2406,-6.2472,-6.2437,-6.2526,-6.2535,-6.2582,-6.2617,-6.2621,-6.2607,-6.2601,-6.2602,-6.2898,-6.29,0,0,-6.2385,-6.2425,-6.2464,-6.2476,-6.2469,-6.2435,-6.2439,-6.2531,-6.2572,-6.2618,-6.2623,-6.2609,-6.2602,-6.2603,-6.2896,-6.2899,0,0,0,-6.2385,-6.2424,-6.242,-6.2472,-6.2482,-6.2437,-6.2442,-6.2567,-6.2563,-6.2624,-6.2611,-6.2603,-6.2605,-6.2894,-6.2897,-6.304,0,0,0,-6.2382,-6.2423,-6.242,-6.2445,-6.2481,-6.2526,-6.2478,-6.2557,-6.2566,-6.261,-6.2603,-6.2606,-6.2891,-6.2895,-6.3031,-6.3101,0,0,0,-6.2391,-6.2424,-6.2441,-6.2447,-6.2477,-6.2524,-6.2524,-6.2558,-6.2559,-6.2601,-6.2607,-6.289,-6.2895,-6.3023,-6.3088,-6.319,0,0,0,-6.2412,-6.2567,-6.2444,-6.2611,-6.2477,-6.2612,-6.2523,-6.2621,-6.2675,-6.2604,-6.2892,-6.2897,-6.3021,-6.3079,-6.3182,-6.3284,-6.333,0,0,-6.263,-6.2595,-6.269,-6.2582,-6.2749,-6.2599,-6.2786,-6.2797,-6.2764,-6.2855,-6.2861,-6.3034,-6.3087,-6.3189,-6.3577,-6.3614,0,0,0,-6.2772,-6.2841,-6.2877,-6.293,-6.2942,-6.2958,-6.2935,-6.2939,-6.3014,-6.2819,-6.3098,-6.3128,-6.3186,-6.3233,-6.3264,-6.3311,-6.292,-6.292,-6.2919,-6.3138,-6.3087,-6.3241,-6.3199,-6.3252,-6.3227,-6.3264,-6.3264,-6.3198,-6.3264,-6.3291,-6.3533,-6.3589,-6.3613,-6.3662,-6.3341,-6.3341,-6.3342,-6.3342,-6.3451,-6.354,-6.3449,-6.3565,-6.351,-6.3607,-6.3588,-6.3538,-6.3619,-6.3509,-6.3557,-6.3441,-6.3655,-6.3696,-6.3353,-6.3351,-6.335,-6.3349,-6.3348,-6.3685,-6.3718,-6.3721,-6.3791,-6.3852,-6.3802,-6.3885,-6.3832,-6.3782,-6.3831,-6.3852,-6.385,-6.384,-6.3845,-6.3846,-6.3847,-6.3847,-6.3848,-6.3848,-6.3926,-6.3923,-6.4,-6.4026,-6.4052,-6.408,-6.4056,-6.408,-6.4093,-6.4048,-6.4048,-6.3975,-6.3686,-6.3614,-6.3861,-6.3859,-6.3857,-6.3856,-6.3855,-6.4262,-6.4177,-6.4296,-6.4323,-6.4347,-6.441,-6.4341,-6.4395,-6.4407,-6.4449,-6.4366,-6.416,-6.412,-6.4095,-6.4035,-6.4376,-6.4376,-6.4376,-6.4376,-6.4459,-6.4433,-6.4542,-6.4588,-6.4627,-6.4576,-6.471,-6.4693,-6.4661,-6.4665,-6.4608,-6.4524,-6.4501,-6.4474,-6.4441,-6.4384,-6.4806,-6.4807,-6.4807,-6.4662,-6.4638,-6.4763,-6.4731,-6.4747,-6.4761,-6.4885,-6.494,-6.4887,-6.4823,-6.4667,-6.4649,-6.4513,-6.4472,-6.4405,-6.4354,-6.4249,0,0]}]]